Anchorage, AK

5:16 PM AKST on February 06, 2016 (GMT -0900)
Merrill

Weather History for PAMR - May, 2012

Change the Weather History Date:

Wednesday, May 16, 2012

  Actual Average Record
Temperature  
Mean Temperature 46 °F -  
Max Temperature 57 °F 56 °F 71 °F (2014)
Min Temperature 36 °F 38 °F 34 °F (2002)
Degree Days  
Heating Degree Days 20    
Moisture  
Dew Point 28 °F    
Average Humidity 48    
Maximum Humidity 67    
Minimum Humidity 33    
Precipitation  
Precipitation 0.00 in - - ()
Sea Level Pressure  
Sea Level Pressure 30.33 in    
Wind  
Wind Speed 4 mph (WSW)    
Max Wind Speed 8 mph    
Max Gust Speed -    
Visibility 10 miles    
Events      
Averages and records for this station are not official NWS values.
T = Trace of Precipitation, MM = Missing Value Source: NWS Daily Summary

Daily Weather History Graph

Daily Weather History Graph

Search for Another Location

Airport or City:

Trip Planner

Search our weather history database for the weather conditions in past years. The results will help you decide how hot, cold, wet, or windy it might be!

Date:

Astronomy

May. 16, 2012 Rise Set
Actual Time 5:08 AM AKDT 10:45 PM AKDT
Civil Twilight 3:55 AM AKDT 11:58 PM AKDT
Nautical Twilight 2:28 AM AKDT Sun does not rise
Astronomical Twilight Sun does not rise Sun does not rise
Moon 3:48 AM AKDT (5/16) 6:14 PM AKDT (5/16)
Length of Visible Light 20h 02m
Length of Day
17h 37m
Waning Crescent, 15% of the Moon is Illuminated
May 16
Waning Crescent
May 20
New
May 28
First Quarter
Jun 4
Full
Jun 11
Last Quarter

Hourly Weather History & Observations

Time (AKDT) Temp. Windchill Dew Point Humidity Pressure Visibility Wind Dir Wind Speed Gust Speed Precip Events Conditions
12:53 AM 41.0 °F 38.0 °F 30.0 °F 65% 30.35 in 10.0 mi South 4.6 mph - N/A   Mostly Cloudy
1:53 AM 41.0 °F 38.0 °F 28.0 °F 60% 30.36 in 10.0 mi South 4.6 mph - N/A   Scattered Clouds
2:53 AM 39.0 °F 36.8 °F 27.0 °F 62% 30.37 in 10.0 mi SE 3.5 mph - N/A   Scattered Clouds
3:53 AM 37.9 °F - 26.1 °F 62% 30.37 in 10.0 mi Calm Calm - N/A   Scattered Clouds
4:53 AM 36.0 °F 33.3 °F 26.1 °F 67% 30.37 in 10.0 mi East 3.5 mph - N/A   Scattered Clouds
5:53 AM 36.0 °F - 25.0 °F 64% 30.37 in 10.0 mi Calm Calm - N/A   Mostly Cloudy
6:53 AM 37.9 °F - 26.1 °F 62% 30.37 in 10.0 mi Calm Calm - N/A   Clear
7:53 AM 42.1 °F - 27.0 °F 55% 30.37 in 10.0 mi Calm Calm - N/A   Clear
8:53 AM 44.1 °F - 28.9 °F 55% 30.37 in 10.0 mi Calm Calm - N/A   Clear
9:53 AM 46.0 °F 43.1 °F 30.9 °F 56% 30.37 in 10.0 mi WNW 5.8 mph - N/A   Clear
10:53 AM 48.9 °F - 28.9 °F 46% 30.36 in 10.0 mi Calm Calm - N/A   Clear
11:53 AM 50.0 °F - 28.0 °F 43% 30.35 in 10.0 mi NNW 4.6 mph - N/A   Clear
12:53 PM 53.1 °F - 30.9 °F 43% 30.34 in 10.0 mi Variable 4.6 mph - N/A   Clear
1:53 PM 54.0 °F - 30.0 °F 40% 30.33 in 10.0 mi West 6.9 mph - N/A   Clear
2:53 PM 55.0 °F - 30.0 °F 38% 30.32 in 10.0 mi West 8.1 mph - N/A   Partly Cloudy
3:53 PM 55.9 °F - 30.0 °F 37% 30.31 in 10.0 mi West 6.9 mph - N/A   Clear
4:53 PM 55.9 °F - 28.9 °F 36% 30.29 in 10.0 mi West 8.1 mph - N/A   Partly Cloudy
5:53 PM 55.0 °F - 28.0 °F 35% 30.28 in 10.0 mi West 8.1 mph - N/A   Clear
6:53 PM 55.9 °F - 27.0 °F 33% 30.27 in 10.0 mi West 8.1 mph - N/A   Partly Cloudy
7:53 PM 55.0 °F - 27.0 °F 34% 30.27 in 10.0 mi West 5.8 mph - N/A   Clear
8:53 PM 55.0 °F - 28.0 °F 35% 30.26 in 10.0 mi SW 5.8 mph - N/A   Clear
9:53 PM 53.1 °F - 28.0 °F 38% 30.26 in 10.0 mi WSW 4.6 mph - N/A   Clear
10:53 PM 50.0 °F - 27.0 °F 41% 30.27 in 10.0 mi Calm Calm - N/A   Clear
11:53 PM 45.0 °F 42.6 °F 28.9 °F 53% 30.27 in 10.0 mi East 4.6 mph - N/A   Scattered Clouds